Location: Brusselsch Zeekanaal
(50.8667°N, 4.3667°E)
Time: 02:03:22
(UTC+00:00)

Okean 1-7 - Pass Details

Date: 08 November 2025
Orbit: 566 x 590 km, 82.5° (Epoch: 13 December)

Event Time Altitude Azimuth Distance (km) Brightness Sun altitude
Exits shadow 04:13:15 59° 11° (N) 684 3.2 -24.3°
Drops below altitude 10° 04:16:44 10° 10° (N) 1,927 5.7 -23.7°
Sets 04:18:57 0° 11° (N) 2,835 6.6 -23.4°
